Terminal Aerodrome Forecast
Issued by NWS Houston/Galveston, TX

Home | Current Version | Previous Version | Text Only | Print | Product List | Glossary On
Versions: 1 2 3 4 5 6 7 8 9 10 11 12 13 14 15 16 17
000
FTUS44 KHGX 240639 AAA
TAFCLL
TAF AMD
KCLL 240639Z 2407/2506 17013KT P6SM OVC018
     FM241000 18010KT P6SM BKN007
     FM241400 19010KT P6SM SCT025
     FM242100 22010KT P6SM VCTS BKN050CB
     FM250300 01006KT P6SM SCT250=

USA.gov is the U.S. government's official web portal to all federal, state and local government web resources and services.